This demonstration page uses our WeatherBlox Daily Observations layout. Learn more.

Left ArrowRight Arrow

39.51506, -84.39828

Hourly Observations for May 28, 2022

Temp ( °F °C ) Dew Point ( °F °C ) Humidity (%) Winds ( mph kmh ) Pressure ( in mb ) Visibility ( mi km ) Precip ( " mm )
12:15 am 00:15 Mostly Cloudy 59 15 N/A N/A W 3 6 29.86 1011 10 16 0.01 0.25
12:35 am 00:35 Cloudy 61 16 N/A N/A W 9 15 29.85 1011 10 16 0.01 0.25
12:55 am 00:55 Cloudy 60 15.7 60 15.5 99 99 W 9 15 29.85 1011 10 16 0.01 0.25
1:15 am 01:15 Cloudy 60 15.4 59 15.1 98 98 W 7 11 29.87 1011 10 16 0.00 0.00
1:35 am 01:35 Cloudy with Mist and Fog 59 15 59 15 100 100 W 8 13 29.87 1011 7 11 0.00 0.00
1:55 am 01:55 Cloudy 58 14.7 58 14.5 99 99 WNW 7 11 29.87 1011 10 16 0.00 0.00
2:15 am 02:15 Cloudy 59 15 59 15 100 100 W 6 9 29.87 1011 10 16 0.01 0.25
2:35 am 02:35 Cloudy 58 14.6 58 14.5 99 99 W 5 7 29.87 1011 7 11 0.01 0.25
2:55 am 02:55 Cloudy 58 14.6 58 14.5 99 99 W 5 7 29.87 1011 10 16 0.01 0.25
3:15 am 03:15 Cloudy 57 14 57 14 100 100 W 6 9 29.87 1011 10 16 0.00 0.00
3:35 am 03:35 Cloudy 57 14 N/A N/A W 3 6 29.87 1011 10 16 0.00 0.00
3:55 am 03:55 Cloudy 58 14.2 57 13.9 98 98 W 3 6 29.88 1012 10 16 0.00 0.00
4:15 am 04:15 Cloudy 58 14.2 57 13.9 98 98 WSW 6 9 29.88 1012 10 16 0.00 0.00
4:35 am 04:35 Cloudy 57 14.1 56 13.6 97 97 WSW 6 9 29.89 1012 10 16 0.00 0.00
4:55 am 04:55 Cloudy 57 13.9 56 13.3 96 96 WSW 5 7 29.89 1012 10 16 0.01 0.25
5:15 am 05:15 Cloudy 57 13.8 55 12.9 94 94 WSW 6 9 29.90 1013 10 16 0.00 0.00
5:35 am 05:35 Cloudy 57 13.8 56 13.1 96 96 WSW 6 9 29.91 1013 10 16 0.00 0.00
5:55 am 05:55 Cloudy 56 13.6 54 12.4 93 93 W 7 11 29.92 1013 10 16 0.00 0.00
6:15 am 06:15 Cloudy 56 13.4 54 12.3 93 93 WSW 5 7 29.92 1013 10 16 0.00 0.00
6:35 am 06:35 Cloudy 56 13.4 54 12.2 93 93 WSW 5 7 29.93 1014 10 16 0.00 0.00
6:55 am 06:55 Cloudy 56 13.5 54 12.1 91 91 WSW 6 9 29.93 1014 10 16 0.00 0.00
7:15 am 07:15 Cloudy 56 13.4 53 11.9 91 91 W 5 7 29.94 1014 10 16 0.00 0.00
7:35 am 07:35 Cloudy 56 13.4 54 12.1 92 92 W 5 7 29.95 1014 10 16 0.00 0.00
7:55 am 07:55 Cloudy 56 13.5 54 12 91 91 W 3 6 29.96 1015 10 16 0.00 0.00
8:15 am 08:15 Cloudy 56 13.6 54 12.2 91 91 WNW 5 7 29.96 1015 10 16 0.00 0.00
8:35 am 08:35 Cloudy 57 13.7 54 12.3 91 91 Calm 29.96 1015 10 16 0.00 0.00
8:55 am 08:55 Cloudy 57 13.8 53 11.9 88 88 Calm 29.96 1015 10 16 0.00 0.00
9:15 am 09:15 Cloudy 58 14.2 54 12.4 89 89 SW 3 6 29.97 1015 10 16 0.00 0.00
9:35 am 09:35 Cloudy 58 14.4 54 12.4 88 88 Calm 29.97 1015 10 16 0.00 0.00
9:55 am 09:55 Cloudy 58 14.7 55 12.9 89 89 WSW 5 7 29.98 1015 10 16 0.00 0.00
10:15 am 10:15 Cloudy 59 15 56 13.1 89 89 WSW 5 7 29.98 1015 10 16 0.00 0.00
10:35 am 10:35 Cloudy 60 15.4 56 13.2 87 87 SW 3 6 29.98 1015 10 16 0.00 0.00
10:55 am 10:55 Cloudy 61 16.2 57 13.8 86 86 SSW 5 7 29.96 1015 10 16 0.00 0.00
11:15 am 11:15 Cloudy 63 17 58 14.3 84 84 SSW 8 13 29.97 1015 10 16 0.00 0.00
11:35 am 11:35 Cloudy 64 17.7 59 14.8 83 83 SW 7 11 29.97 1015 10 16 0.00 0.00
11:55 am 11:55 Cloudy 64 17.8 59 14.8 83 83 W 6 9 29.97 1015 10 16 0.00 0.00
12:15 pm 12:15 Cloudy 65 18.4 59 15.1 81 81 W 5 7 29.97 1015 10 16 0.00 0.00
12:35 pm 12:35 Cloudy 65 18.4 59 14.8 80 80 W 6 9 29.98 1015 10 16 0.00 0.00
12:55 pm 12:55 Cloudy 66 18.8 59 15.2 80 80 W 5 7 29.98 1015 10 16 0.00 0.00
1:15 pm 13:15 Cloudy 66 19.1 60 15.8 81 81 W 7 11 29.97 1015 10 16 0.00 0.00
1:35 pm 13:35 Cloudy 67 19.5 60 15.8 79 79 WNW 7 11 29.97 1015 10 16 0.00 0.00
1:55 pm 13:55 Cloudy 68 20.1 62 16.4 79 79 W 7 11 29.96 1015 10 16 0.00 0.00
2:15 pm 14:15 Cloudy 69 20.4 60 15.5 74 74 WSW 5 7 29.95 1014 10 16 0.00 0.00
2:35 pm 14:35 Cloudy 68 20.1 58 14.6 71 71 SW 5 7 29.95 1014 10 16 0.00 0.00
2:55 pm 14:55 Cloudy 69 20.3 59 15 72 72 WSW 7 11 29.95 1014 10 16 0.00 0.00
3:15 pm 15:15 Cloudy 70 21.3 61 16.2 73 73 WSW 7 11 29.95 1014 10 16 0.00 0.00
3:35 pm 15:35 Cloudy 69 20.7 58 14.7 69 69 Calm 29.95 1014 10 16 0.00 0.00
3:55 pm 15:55 Cloudy 70 21.1 60 15.5 71 71 WSW 6 9 29.95 1014 10 16 0.00 0.00
4:15 pm 16:15 Cloudy 70 21 58 14.6 67 67 SW 3 6 29.95 1014 10 16 0.00 0.00
4:35 pm 16:35 Cloudy 71 21.5 59 15 67 67 SSW 6 9 29.94 1014 10 16 0.00 0.00
4:55 pm 16:55 Cloudy 70 21.3 58 14.7 66 66 SW 3 6 29.94 1014 10 16 0.00 0.00
5:15 pm 17:15 Mostly Cloudy 71 21.4 57 14 63 63 W 8 13 29.94 1014 10 16 0.00 0.00
5:35 pm 17:35 Cloudy 71 21.7 58 14.5 64 64 Calm 29.93 1014 10 16 0.00 0.00
5:55 pm 17:55 Cloudy 71 21.9 58 14.4 63 63 Calm 29.92 1013 10 16 0.00 0.00
6:15 pm 18:15 Partly Cloudy 73 22.6 59 15 62 62 Calm 29.92 1013 10 16 0.00 0.00
6:35 pm 18:35 Mostly Cloudy 72 22.2 58 14.5 62 62 Calm 29.91 1013 10 16 0.00 0.00
6:55 pm 18:55 Partly Cloudy 72 22.3 58 14.7 62 62 Calm 29.91 1013 10 16 0.00 0.00
7:15 pm 19:15 Sunny 72 22.2 58 14.4 61 61 SSW 5 7 29.92 1013 10 16 0.00 0.00
7:35 pm 19:35 Mostly Cloudy 71 21.7 60 15.6 68 68 Calm 29.92 1013 10 16 0.00 0.00
7:55 pm 19:55 Cloudy 71 21.4 60 15.8 71 71 Calm 29.92 1013 10 16 0.00 0.00
8:15 pm 20:15 Mostly Cloudy 70 21 63 17 78 78 Calm 29.92 1013 10 16 0.00 0.00
8:35 pm 20:35 Mostly Cloudy 67 19.7 62 16.9 84 84 Calm 29.94 1014 10 16 0.00 0.00
8:55 pm 20:55 Partly Cloudy 65 18.5 64 18 97 97 Calm 29.93 1013 10 16 0.00 0.00
9:15 pm 21:15 Partly Cloudy 67 19.7 60 15.3 76 76 ESE 6 9 29.93 1013 10 16 0.00 0.00
9:35 pm 21:35 Clear 63 17 61 16 94 94 Calm 29.93 1014 10 16 0.00 0.00
9:55 pm 21:55 Partly Cloudy 61 16 N/A N/A Calm 29.93 1014 10 16 0.00 0.00
10:15 pm 22:15 Partly Cloudy 61 16 N/A N/A Calm 29.94 1014 10 16 0.00 0.00
10:35 pm 22:35 Clear 62 16.7 61 16.2 97 97 SE 5 7 29.94 1014 10 16 0.00 0.00
10:55 pm 22:55 Clear 65 18.3 61 16 87 87 SSE 6 9 29.95 1014 10 16 0.00 0.00
11:15 pm 23:15 Clear 65 18.5 61 16.3 87 87 SSE 8 13 29.96 1014 10 16 0.00 0.00
11:35 pm 23:35 Clear 65 18.3 61 16.2 88 88 SE 5 7 29.96 1015 10 16 0.00 0.00
11:55 pm 23:55 Clear 64 18 61 16.2 89 89 Calm 29.96 1015 10 16 0.00 0.00

Powered by AerisWeather